Home > Weather > Wood Buffalo > Past weeks

Flag for Canada Past Weather in Wood Buffalo, Alberta, Canada — Yesterday and Last 2 Weeks

Now
75 °F

Thunderstorms. Partly sunny.


Feels Like: 78 °F
Forecast: 54 / 82 °F
Wind: 3 mph from West

Location: Fort Mcmurray

Current Time: Jun 26, 2016 at 3:00:14 PM

Latest Report: Jun 26, 2016 at 2:00 PM


Visibility: 9 mi

Pressure: 30.05 "Hg

Humidity: 41%

Dew Point: 50 °F

Location of Wood BuffaloLocation

Past Weather in Wood Buffalo — Graph

°F

Wood Buffalo Temperature Yesterday

Maximum temperature yesterday: 73 °F (at 5:00 PM)
Minimum temperature yesterday: 57 °F (at 5:00 AM)
Average temperature yesterday: 65 °F

High & Low Weather Summary for the Past Weeks

 TemperatureHumidityPressure
High82 °F (Jun 21, 3:00 PM)94% (Jun 11, 8:00 PM)30.17 "Hg (Jun 11, 8:00 PM)
Low41 °F (Jun 20, 2:00 AM)15% (Jun 20, 5:00 PM)29.38 "Hg (Jun 15, 9:58 AM)
Average61 °F62%29.77 "Hg
* Reported Jun 11 1:00 PM — Jun 26 1:52 PM, Wood Buffalo, Weather by CustomWeather, © 2016

Note: Actual official high and low records may vary slightly from our data, if they occured in-between our weather recording intervals... More about our weather records

Advertising

Wood Buffalo Weather History for the Previous 24 Hours

Scroll right to see more
 ConditionsComfort  
Time TempWeatherWind HumidityBarometerVisibility
1:52 PM
Sun, Jun 26
75 °FThunderstorms. Broken clouds.3 mph41%30.04 "Hg9 mi
1:00 PM79 °FScattered clouds.5 mph39%30.04 "Hg9 mi
12:00 PM77 °FSunny.3 mph47%30.04 "Hg9 mi
11:00 AM73 °FScattered clouds.3 mph50%30.05 "Hg9 mi
10:00 AM72 °FScattered clouds.No wind53%30.05 "Hg9 mi
9:00 AM70 °FSunny.3 mph60%30.04 "Hg9 mi
8:00 AM64 °FSunny.3 mph68%30.04 "Hg9 mi
7:00 AM57 °FSunny.2 mph82%30.03 "Hg9 mi
6:00 AM54 °FSunny.3 mph88%30.02 "Hg9 mi
5:00 AM52 °FClear.2 mph94%30.00 "Hg9 mi
4:00 AM52 °FClear.6 mph94%30.00 "Hg9 mi
3:00 AM54 °FClear.2 mph94%29.98 "Hg9 mi
2:00 AM54 °FClear.3 mph88%29.96 "Hg9 mi
1:00 AM55 °FClear.5 mph88%29.96 "Hg9 mi
12:00 AM55 °FClear.5 mph82%29.95 "Hg9 mi
11:00 PM
Sat, Jun 25
59 °FSunny.3 mph77%29.93 "Hg9 mi
10:00 PM66 °FSunny.6 mph60%29.92 "Hg9 mi
9:00 PM70 °FSunny.8 mph53%29.89 "Hg9 mi
8:00 PM72 °FBroken clouds.10 mph53%29.88 "Hg9 mi
7:00 PM73 °FPassing clouds.12 mph47%29.86 "Hg9 mi
6:00 PM73 °FPassing clouds.9 mph50%29.86 "Hg9 mi
5:00 PM73 °FBroken clouds.8 mph50%29.86 "Hg9 mi
4:00 PM72 °FPartly sunny.2 mph53%29.85 "Hg9 mi
3:00 PM72 °FMostly cloudy.9 mph61%29.86 "Hg9 mi
Weather by CustomWeather, © 2016

See weather overviewHow to use our weather pages